QPF
0.00 0.00 0.00 0.00 0.00 0.00 0.00 0.00 0.00 0.00 0.00 0.00 0.00 0.00 0.01 0.01 0.01 0.01 0.01 0.02 0.02 0.02 0.01 0.01 0.01 0.01 0.01 0.02 0.01 0.01 0.01 0.02 0.03 0.03 0.02 0.02 0.03 0.03 0.02 0.01 0.01 0.02 0.01
0.00 0.00 0.00 0.00 0.00 0.00 0.00 0.00 0.00 0.00 0.00 0.00 0.00 0.00 0.00 0.01 0.00 0.01 0.01 0.01 0.01 0.02 0.01 0.01 0.01 0.00 0.01 0.01 0.01 0.01 0.01 0.02 0.02 0.02 0.02 0.02 0.02 0.01 0.01 0.01 0.01 0.01 0.02
0.00 0.00 0.00 0.00 0.00 0.00 0.00 0.00 0.00 0.00 0.00 0.00 0.00 0.00 0.00 0.00 0.00 0.00 0.00 0.00 0.01 0.01 0.00 0.01 0.01 0.01 0.01 0.02 0.01 0.02 0.02 0.01 0.02 0.03 0.03 0.02 0.01 0.01 0.01 0.01 0.01 0.01 0.01
0.00 0.00 0.00 0.00 0.00 0.00 0.00 0.00 0.00 0.00 0.00 0.00 0.00 0.00 0.00 0.00 0.00 0.00 0.00 0.00 0.00 0.00 0.00 0.00 0.01 0.01 0.01 0.01 0.01 0.01 0.02 0.02 0.01 0.01 0.02 0.02 0.01 0.01 0.01 0.02 0.02 0.01 0.01
0.00 0.00 0.00 0.00 0.00 0.00 0.00 0.00 0.00 0.00 0.00 0.00 0.00 0.00 0.00 0.00 0.00 0.00 0.00 0.00 0.00 0.00 0.00 0.00 0.00 0.01 0.01 0.01 0.00 0.01 0.01 0.02 0.01 0.01 0.01 0.01 0.01 0.02 0.03 0.04 0.05 0.02 0.01
0.00 0.00 0.00 0.00 0.00 0.00 0.00 0.00 0.00 0.00 0.00 0.00 0.00 0.00 0.00 0.00 0.00 0.00 0.00 0.00 0.01 0.00 0.00 0.00 0.00 0.01 0.01 0.00 0.00 0.00 0.01 0.02 0.02 0.02 0.02 0.02 0.02 0.03 0.03 0.02 0.01 0.00 0.00
0.00 0.00 0.00 0.00 0.00 0.00 0.00 0.00 0.00 0.00 0.00 0.00 0.00 0.00 0.00 0.00 0.00 0.00 0.00 0.00 0.00 0.00 0.00 0.00 0.01 0.00 0.00 0.00 0.00 0.00 0.01 0.01 0.01 0.01 0.01 0.01 0.01 0.01 0.01 0.01 0.01 0.01 0.00
0.00 0.00 0.00 0.00 0.00 0.00 0.00 0.00 0.00 0.00 0.00 0.00 0.00 0.00 0.00 0.00 0.00 0.00 0.00 0.00 0.00 0.00 0.00 0.00 0.01 0.00 0.00 0.00 0.00 0.00 0.00 0.00 0.00 0.00 0.00 0.00 0.00 0.00 0.00 0.01 0.01 0.00 0.00
0.00 0.00 0.00 0.00 0.01 0.01 0.01 0.01 0.00 0.00 0.00 0.00 0.00 0.00 0.00 0.00 0.00 0.00 0.00 0.00 0.00 0.00 0.00 0.00 0.00 0.00 0.00 0.00 0.00 0.00 0.00 0.00 0.00 0.00 0.00 0.00 0.00 0.00 0.00 0.00 0.00 0.00 0.00
0.00 0.01 0.01 0.01 0.01 0.01 0.01 0.01 0.01 0.01 0.00 0.01 0.01 0.00 0.00 0.00 0.00 0.00 0.00 0.00 0.00 0.00 0.00 0.00 0.00 0.00 0.00 0.00 0.01 0.00 0.00 0.00 0.00 0.00 0.00 0.00 0.00 0.00 0.00 0.00 0.00 0.00 0.00
0.01 0.01 0.01 0.01 0.01 0.01 0.01 0.01 0.01 0.01 0.01 0.01 0.01 0.00 0.00 0.00 0.00 0.00 0.00 0.00 0.00 0.00 0.00 0.00 0.00 0.00 0.00 0.00 0.00 0.00 0.00 0.00 0.00 0.00 0.00 0.00 0.00 0.00 0.00 0.00 0.00 0.00 0.00
0.01 0.01 0.01 0.01 0.02 0.02 0.02 0.01 0.01 0.01 0.01 0.01 0.01 0.01 0.00 0.00 0.00 0.00 0.00 0.00 0.00 0.00 0.00 0.00 0.00 0.00 0.00 0.00 0.00 0.00 0.00 0.00 0.00 0.00 0.00 0.00 0.00 0.00 0.00 0.00 0.00 0.00 0.00
0.01 0.01 0.01 0.02 0.02 0.02 0.02 0.02 0.01 0.01 0.01 0.01 0.01 0.01 0.01 0.01 0.01 0.01 0.01 0.01 0.01 0.00 0.00 0.01 0.01 0.01 0.00 0.00 0.00 0.00 0.00 0.00 0.00 0.00 0.00 0.00 0.00 0.00 0.00 0.00 0.00 0.00 0.00
0.01 0.01 0.01 0.02 0.02 0.02 0.02 0.02 0.02 0.02 0.01 0.01 0.01 0.01 0.01 0.01 0.00 0.00 0.00 0.00 0.00 0.00 0.00 0.01 0.01 0.01 0.01 0.00 0.00 0.00 0.00 0.00 0.00 0.00 0.00 0.00 0.00 0.00 0.00 0.00 0.00 0.00 0.00
0.01 0.01 0.01 0.01 0.02 0.02 0.03 0.03 0.02 0.02 0.01 0.01 0.01 0.02 0.01 0.01 0.01 0.01 0.00 0.00 0.00 0.00 0.00 0.00 0.00 0.00 0.00 0.01 0.00 0.00 0.00 0.00 0.00 0.00 0.00 0.00 0.00 0.00 0.00 0.00 0.00 0.00 0.00
0.01 0.01 0.01 0.01 0.01 0.01 0.02 0.02 0.01 0.01 0.01 0.01 0.01 0.02 0.01 0.02 0.02 0.01 0.01 0.00 0.00 0.00 0.00 0.00 0.00 0.01 0.01 0.01 0.01 0.01 0.01 0.01 0.01 0.00 0.00 0.00 0.00 0.01 0.00 0.00 0.00 0.00 0.00
0.01 0.01 0.01 0.01 0.01 0.02 0.02 0.02 0.01 0.01 0.01 0.01 0.01 0.02 0.02 0.02 0.03 0.03 0.02 0.01 0.01 0.01 0.00 0.00 0.00 0.00 0.00 0.00 0.00 0.00 0.01 0.01 0.00 0.00 0.00 0.00 0.00 0.00 0.00 0.00 0.00 0.00 0.00
0.01 0.01 0.02 0.02 0.02 0.02 0.02 0.02 0.02 0.02 0.01 0.01 0.01 0.01 0.01 0.01 0.01 0.01 0.01 0.01 0.01 0.01 0.01 0.01 0.01 0.01 0.00 0.01 0.01 0.01 0.01 0.00 0.00 0.00 0.00 0.00 0.00 0.00 0.00 0.00 0.00 0.00 0.01
0.02 0.02 0.02 0.02 0.01 0.01 0.01 0.02 0.03 0.03 0.03 0.02 0.01 0.01 0.02 0.02 0.02 0.02 0.02 0.01 0.01 0.01 0.01 0.01 0.01 0.01 0.01 0.01 0.00 0.00 0.00 0.00 0.00 0.00 0.00 0.00 0.00 0.00 0.00 0.00 0.00 0.00 0.01
0.02 0.02 0.01 0.01 0.01 0.01 0.01 0.02 0.03 0.04 0.04 0.04 0.03 0.02 0.02 0.02 0.02 0.02 0.02 0.02 0.02 0.01 0.01 0.01 0.01 0.00 0.00 0.00 0.00 0.00 0.00 0.00 0.00 0.00 0.00 0.00 0.00 0.00 0.00 0.00 0.00 0.00 0.00
0.01 0.01 0.01 0.01 0.01 0.01 0.01 0.01 0.02 0.03 0.04 0.04 0.04 0.03 0.02 0.01 0.01 0.01 0.01 0.01 0.01 0.01 0.01 0.00 0.00 0.00 0.00 0.00 0.00 0.00 0.00 0.00 0.00 0.00 0.00 0.00 0.00 0.00 0.00 0.00 0.00 0.00 0.00
0.02 0.02 0.01 0.01 0.01 0.01 0.01 0.02 0.02 0.02 0.02 0.03 0.03 0.02 0.01 0.01 0.00 0.00 0.00 0.00 0.00 0.00 0.01 0.00 0.00 0.00 0.00 0.00 0.00 0.00 0.00 0.00 0.00 0.00 0.00 0.00 0.00 0.00 0.00 0.00 0.00 0.00 0.00
0.02 0.02 0.02 0.01 0.01 0.02 0.02 0.02 0.03 0.03 0.03 0.03 0.02 0.01 0.01 0.01 0.00 0.00 0.00 0.01 0.01 0.01 0.01 0.01 0.01 0.00 0.00 0.00 0.01 0.01 0.00 0.00 0.00 0.00 0.00 0.00 0.00 0.00 0.00 0.01 0.01 0.01 0.01
0.02 0.02 0.02 0.02 0.02 0.02 0.02 0.02 0.02 0.02 0.02 0.02 0.02 0.02 0.01 0.01 0.01 0.01 0.01 0.01 0.01 0.01 0.01 0.01 0.01 0.01 0.01 0.01 0.01 0.01 0.01 0.01 0.00 0.00 0.00 0.01 0.01 0.01 0.01 0.01 0.01 0.01 0.01
0.01 0.02 0.02 0.03 0.04 0.03 0.02 0.02 0.02 0.02 0.02 0.02 0.02 0.02 0.02 0.01 0.01 0.01 0.01 0.01 0.01 0.01 0.01 0.01 0.01 0.01 0.01 0.00 0.00 0.00 0.00 0.00 0.00 0.00 0.01 0.01 0.01 0.01 0.01 0.02 0.02 0.02 0.03
0.01 0.01 0.02 0.03 0.04 0.03 0.03 0.03 0.03 0.02 0.02 0.02 0.02 0.01 0.01 0.01 0.01 0.01 0.01 0.01 0.01 0.01 0.01 0.01 0.00 0.00 0.00 0.00 0.00 0.00 0.00 0.00 0.00 0.01 0.01 0.01 0.01 0.02 0.02 0.02 0.02 0.02 0.02
MSLP
1018.60 1018.98 1019.34 1019.64 1019.85 1019.96 1019.96 1019.88 1019.75 1019.59 1019.45 1019.35 1019.31 1019.32 1019.37 1019.45 1019.51 1019.56 1019.57 1019.55 1019.50 1019.45 1019.40 1019.37 1019.37 1019.40 1019.46 1019.53 1019.59 1019.63 1019.66 1019.66 1019.64 1019.61 1019.58 1019.58 1019.59 1019.61 1019.66 1019.70 1019.73 1019.73 1019.70
1018.70 1019.11 1019.48 1019.79 1020.01 1020.13 1020.16 1020.10 1019.99 1019.87 1019.76 1019.69 1019.67 1019.71 1019.77 1019.85 1019.93 1019.98 1019.99 1019.96 1019.91 1019.85 1019.79 1019.75 1019.74 1019.76 1019.80 1019.85 1019.89 1019.91 1019.91 1019.88 1019.83 1019.76 1019.70 1019.66 1019.64 1019.65 1019.68 1019.72 1019.77 1019.80 1019.82
1018.75 1019.18 1019.57 1019.90 1020.14 1020.28 1020.34 1020.32 1020.26 1020.18 1020.12 1020.09 1020.10 1020.16 1020.24 1020.33 1020.40 1020.44 1020.45 1020.41 1020.36 1020.29 1020.22 1020.18 1020.17 1020.18 1020.22 1020.26 1020.29 1020.30 1020.28 1020.23 1020.15 1020.06 1019.96 1019.88 1019.82 1019.78 1019.78 1019.79 1019.82 1019.84 1019.85
1018.71 1019.16 1019.58 1019.93 1020.20 1020.38 1020.48 1020.52 1020.51 1020.50 1020.49 1020.51 1020.56 1020.64 1020.73 1020.82 1020.90 1020.93 1020.92 1020.88 1020.82 1020.74 1020.68 1020.64 1020.62 1020.64 1020.67 1020.71 1020.74 1020.75 1020.72 1020.66 1020.57 1020.46 1020.33 1020.21 1020.11 1020.02 1019.96 1019.92 1019.89 1019.87 1019.85
1018.57 1019.05 1019.49 1019.87 1020.18 1020.41 1020.56 1020.66 1020.72 1020.77 1020.83 1020.90 1021.00 1021.10 1021.21 1021.31 1021.37 1021.39 1021.38 1021.33 1021.25 1021.17 1021.11 1021.06 1021.05 1021.06 1021.10 1021.14 1021.17 1021.19 1021.16 1021.10 1021.01 1020.89 1020.75 1020.60 1020.46 1020.33 1020.21 1020.11 1020.01 1019.92 1019.83
1018.34 1018.85 1019.32 1019.73 1020.08 1020.35 1020.56 1020.73 1020.86 1020.98 1021.10 1021.22 1021.36 1021.49 1021.61 1021.71 1021.76 1021.78 1021.75 1021.69 1021.61 1021.53 1021.47 1021.42 1021.41 1021.42 1021.46 1021.50 1021.54 1021.56 1021.54 1021.49 1021.41 1021.29 1021.15 1021.00 1020.84 1020.67 1020.51 1020.34 1020.18 1020.02 1019.86
1018.03 1018.58 1019.08 1019.53 1019.91 1020.23 1020.49 1020.72 1020.91 1021.09 1021.26 1021.43 1021.59 1021.74 1021.87 1021.97 1022.02 1022.03 1022.00 1021.94 1021.86 1021.79 1021.73 1021.69 1021.68 1021.70 1021.73 1021.77 1021.81 1021.83 1021.82 1021.78 1021.72 1021.61 1021.49 1021.34 1021.18 1021.00 1020.81 1020.61 1020.39 1020.17 1019.95
1017.68 1018.26 1018.79 1019.27 1019.69 1020.05 1020.36 1020.63 1020.87 1021.09 1021.29 1021.49 1021.67 1021.83 1021.96 1022.05 1022.10 1022.11 1022.08 1022.03 1021.97 1021.91 1021.87 1021.85 1021.85 1021.87 1021.91 1021.95 1021.99 1022.01 1022.01 1021.98 1021.93 1021.85 1021.74 1021.61 1021.46 1021.29 1021.10 1020.88 1020.64 1020.39 1020.12
1017.31 1017.92 1018.48 1018.99 1019.44 1019.83 1020.17 1020.48 1020.74 1020.99 1021.21 1021.41 1021.59 1021.75 1021.87 1021.95 1022.00 1022.01 1022.00 1021.97 1021.93 1021.91 1021.90 1021.91 1021.93 1021.97 1022.02 1022.07 1022.11 1022.13 1022.13 1022.11 1022.06 1022.00 1021.91 1021.81 1021.68 1021.53 1021.35 1021.14 1020.91 1020.65 1020.37
1016.94 1017.56 1018.14 1018.68 1019.15 1019.57 1019.94 1020.27 1020.55 1020.81 1021.03 1021.22 1021.38 1021.52 1021.62 1021.69 1021.73 1021.75 1021.76 1021.77 1021.78 1021.80 1021.84 1021.89 1021.96 1022.03 1022.10 1022.16 1022.20 1022.22 1022.22 1022.20 1022.16 1022.10 1022.03 1021.94 1021.84 1021.71 1021.56 1021.38 1021.17 1020.93 1020.66
1016.56 1017.19 1017.79 1018.34 1018.83 1019.28 1019.67 1020.01 1020.30 1020.55 1020.76 1020.93 1021.07 1021.17 1021.25 1021.31 1021.35 1021.38 1021.41 1021.46 1021.53 1021.61 1021.71 1021.82 1021.94 1022.05 1022.16 1022.23 1022.29 1022.31 1022.31 1022.28 1022.24 1022.18 1022.11 1022.04 1021.95 1021.85 1021.72 1021.57 1021.40 1021.19 1020.97
1016.17 1016.79 1017.39 1017.95 1018.46 1018.92 1019.33 1019.68 1019.98 1020.23 1020.43 1020.58 1020.69 1020.77 1020.82 1020.86 1020.90 1020.94 1021.01 1021.10 1021.22 1021.37 1021.53 1021.71 1021.89 1022.06 1022.20 1022.31 1022.38 1022.41 1022.41 1022.37 1022.32 1022.26 1022.19 1022.11 1022.03 1021.94 1021.84 1021.72 1021.58 1021.42 1021.24
1015.77 1016.37 1016.95 1017.51 1018.03 1018.50 1018.93 1019.30 1019.61 1019.86 1020.05 1020.20 1020.29 1020.34 1020.38 1020.41 1020.44 1020.50 1020.59 1020.72 1020.89 1021.10 1021.33 1021.58 1021.82 1022.04 1022.22 1022.36 1022.46 1022.50 1022.51 1022.47 1022.42 1022.35 1022.27 1022.19 1022.10 1022.02 1021.93 1021.84 1021.73 1021.62 1021.48
1015.37 1015.92 1016.47 1017.01 1017.53 1018.02 1018.46 1018.85 1019.19 1019.46 1019.66 1019.80 1019.89 1019.94 1019.97 1019.99 1020.03 1020.10 1020.22 1020.38 1020.59 1020.85 1021.13 1021.43 1021.72 1021.98 1022.21 1022.39 1022.51 1022.58 1022.60 1022.58 1022.52 1022.45 1022.37 1022.28 1022.20 1022.12 1022.04 1021.96 1021.88 1021.80 1021.71
1015.00 1015.48 1015.98 1016.49 1017.00 1017.49 1017.95 1018.37 1018.73 1019.03 1019.26 1019.43 1019.53 1019.59 1019.63 1019.67 1019.72 1019.80 1019.93 1020.12 1020.35 1020.64 1020.95 1021.28 1021.61 1021.91 1022.17 1022.38 1022.54 1022.63 1022.68 1022.68 1022.64 1022.59 1022.51 1022.44 1022.36 1022.28 1022.21 1022.14 1022.08 1022.02 1021.96
1014.68 1015.08 1015.52 1015.99 1016.48 1016.97 1017.45 1017.90 1018.29 1018.63 1018.90 1019.11 1019.25 1019.34 1019.41 1019.47 1019.54 1019.64 1019.79 1019.99 1020.24 1020.53 1020.86 1021.20 1021.54 1021.86 1022.15 1022.38 1022.57 1022.70 1022.78 1022.81 1022.81 1022.78 1022.74 1022.68 1022.62 1022.56 1022.50 1022.45 1022.40 1022.36 1022.33
1014.47 1014.79 1015.16 1015.58 1016.05 1016.53 1017.02 1017.48 1017.92 1018.30 1018.62 1018.88 1019.08 1019.22 1019.34 1019.43 1019.54 1019.67 1019.83 1020.04 1020.29 1020.58 1020.91 1021.25 1021.58 1021.91 1022.20 1022.45 1022.66 1022.82 1022.94 1023.02 1023.07 1023.09 1023.09 1023.07 1023.05 1023.01 1022.98 1022.94 1022.90 1022.87 1022.85
1014.38 1014.63 1014.94 1015.32 1015.75 1016.22 1016.70 1017.19 1017.66 1018.09 1018.46 1018.78 1019.04 1019.25 1019.43 1019.58 1019.73 1019.89 1020.08 1020.30 1020.56 1020.85 1021.16 1021.48 1021.81 1022.12 1022.41 1022.67 1022.90 1023.09 1023.25 1023.37 1023.47 1023.55 1023.60 1023.63 1023.65 1023.66 1023.65 1023.63 1023.61 1023.58 1023.56
1014.42 1014.62 1014.89 1015.23 1015.63 1016.08 1016.56 1017.06 1017.55 1018.02 1018.45 1018.83 1019.16 1019.44 1019.69 1019.91 1020.12 1020.33 1020.55 1020.80 1021.06 1021.35 1021.65 1021.96 1022.27 1022.56 1022.84 1023.10 1023.34 1023.55 1023.74 1023.91 1024.06 1024.18 1024.29 1024.38 1024.44 1024.48 1024.51 1024.51 1024.50 1024.48 1024.45
1014.57 1014.75 1015.00 1015.31 1015.69 1016.12 1016.60 1017.10 1017.61 1018.11 1018.59 1019.02 1019.42 1019.78 1020.10 1020.40 1020.68 1020.95 1021.23 1021.51 1021.80 1022.09 1022.39 1022.69 1022.99 1023.27 1023.54 1023.79 1024.03 1024.25 1024.45 1024.65 1024.83 1024.99 1025.14 1025.27 1025.37 1025.45 1025.49 1025.52 1025.51 1025.49 1025.45
1014.79 1014.98 1015.22 1015.53 1015.90 1016.33 1016.80 1017.31 1017.83 1018.35 1018.86 1019.35 1019.81 1020.24 1020.64 1021.01 1021.37 1021.72 1022.05 1022.38 1022.71 1023.03 1023.35 1023.65 1023.94 1024.21 1024.47 1024.71 1024.94 1025.16 1025.37 1025.57 1025.76 1025.94 1026.10 1026.25 1026.38 1026.47 1026.53 1026.56 1026.56 1026.53 1026.47
1015.03 1015.25 1015.51 1015.84 1016.21 1016.64 1017.12 1017.63 1018.16 1018.70 1019.24 1019.77 1020.28 1020.77 1021.25 1021.70 1022.13 1022.55 1022.96 1023.35 1023.73 1024.09 1024.43 1024.75 1025.05 1025.32 1025.57 1025.80 1026.02 1026.22 1026.41 1026.60 1026.78 1026.95 1027.10 1027.25 1027.37 1027.46 1027.52 1027.55 1027.54 1027.49 1027.42
1015.24 1015.51 1015.82 1016.17 1016.57 1017.01 1017.49 1018.01 1018.55 1019.11 1019.67 1020.24 1020.79 1021.34 1021.87 1022.39 1022.89 1023.38 1023.85 1024.31 1024.74 1025.15 1025.53 1025.88 1026.20 1026.48 1026.73 1026.95 1027.15 1027.33 1027.49 1027.65 1027.80 1027.93 1028.06 1028.17 1028.27 1028.34 1028.38 1028.39 1028.37 1028.31 1028.21
1015.41 1015.73 1016.09 1016.48 1016.91 1017.38 1017.88 1018.41 1018.97 1019.54 1020.12 1020.71 1021.29 1021.88 1022.46 1023.03 1023.59 1024.14 1024.67 1025.19 1025.67 1026.13 1026.56 1026.94 1027.28 1027.58 1027.83 1028.05 1028.23 1028.39 1028.52 1028.64 1028.74 1028.83 1028.91 1028.97 1029.03 1029.06 1029.07 1029.06 1029.02 1028.94 1028.83
1015.54 1015.91 1016.32 1016.75 1017.22 1017.72 1018.24 1018.79 1019.36 1019.95 1020.55 1021.15 1021.77 1022.38 1022.99 1023.60 1024.20 1024.79 1025.37 1025.93 1026.46 1026.96 1027.42 1027.84 1028.21 1028.52 1028.79 1029.01 1029.18 1029.32 1029.42 1029.50 1029.55 1029.59 1029.62 1029.64 1029.64 1029.63 1029.61 1029.56 1029.50 1029.41 1029.29
1015.68 1016.09 1016.53 1017.00 1017.50 1018.03 1018.58 1019.15 1019.74 1020.34 1020.96 1021.58 1022.20 1022.83 1023.47 1024.09 1024.72 1025.34 1025.94 1026.53 1027.09 1027.62 1028.11 1028.55 1028.94 1029.28 1029.56 1029.79 1029.96 1030.08 1030.16 1030.21 1030.23 1030.23 1030.21 1030.18 1030.13 1030.08 1030.02 1029.95 1029.86 1029.76 1029.64
Thickness
5705 5704 5703 5702 5703 5703 5703 5703 5704 5704 5704 5703 5703 5703 5703 5702 5701 5699 5699 5698 5699 5699 5698 5697 5695 5694 5692 5691 5690 5690 5689 5688 5683 5683 5682 5681 5680 5679 5677 5676 5675 5674 5673
5704 5703 5702 5701 5700 5701 5701 5701 5702 5703 5703 5702 5701 5702 5701 5700 5700 5698 5697 5697 5697 5696 5696 5695 5693 5691 5690 5690 5688 5687 5686 5686 5684 5679 5680 5679 5678 5677 5675 5674 5674 5673 5671
5703 5702 5700 5699 5700 5700 5700 5699 5700 5700 5700 5700 5700 5700 5699 5699 5698 5697 5697 5696 5695 5695 5694 5693 5692 5690 5688 5687 5686 5685 5684 5683 5682 5680 5677 5676 5675 5675 5673 5672 5672 5670 5669
5702 5701 5700 5699 5699 5699 5699 5698 5698 5698 5698 5698 5699 5698 5698 5697 5697 5696 5696 5694 5693 5693 5691 5690 5689 5688 5687 5685 5684 5683 5681 5680 5679 5677 5676 5674 5673 5672 5671 5670 5669 5668 5667
5702 5700 5700 5699 5699 5698 5697 5695 5695 5696 5696 5696 5696 5696 5695 5694 5694 5694 5693 5692 5691 5690 5689 5687 5685 5682 5680 5680 5680 5679 5678 5677 5676 5674 5672 5671 5670 5668 5667 5666 5665 5665 5665
5702 5700 5699 5698 5697 5696 5695 5694 5693 5693 5693 5693 5693 5692 5691 5690 5687 5686 5688 5689 5689 5688 5686 5684 5681 5678 5675 5673 5672 5672 5671 5672 5672 5670 5669 5667 5666 5665 5663 5661 5660 5659 5659
5702 5701 5699 5698 5695 5695 5693 5692 5690 5690 5689 5689 5689 5688 5687 5685 5682 5682 5681 5685 5685 5685 5683 5681 5678 5675 5673 5674 5670 5667 5666 5664 5664 5666 5665 5664 5662 5660 5658 5657 5656 5653 5652
5702 5700 5699 5696 5694 5693 5691 5689 5688 5688 5686 5685 5685 5684 5683 5681 5679 5678 5677 5680 5680 5679 5678 5677 5675 5673 5671 5670 5670 5668 5666 5663 5660 5660 5660 5659 5656 5654 5652 5650 5649 5648 5648
5702 5700 5698 5696 5693 5691 5689 5688 5688 5686 5684 5683 5681 5680 5680 5678 5675 5674 5674 5676 5675 5675 5673 5671 5671 5669 5664 5663 5664 5664 5662 5659 5655 5652 5651 5649 5647 5645 5643 5643 5643 5642 5642
5702 5700 5698 5696 5693 5689 5688 5687 5685 5683 5681 5679 5678 5677 5677 5676 5671 5670 5670 5673 5672 5670 5668 5666 5662 5661 5658 5657 5659 5658 5656 5655 5653 5650 5647 5645 5643 5640 5637 5636 5636 5635 5635
5700 5697 5695 5693 5691 5688 5685 5683 5682 5680 5678 5677 5675 5673 5672 5671 5668 5666 5665 5669 5668 5666 5664 5662 5658 5654 5652 5651 5651 5651 5648 5647 5646 5645 5643 5641 5638 5636 5633 5630 5628 5626 5625
5696 5693 5691 5689 5687 5685 5681 5679 5678 5675 5674 5672 5671 5669 5668 5666 5664 5662 5660 5660 5661 5661 5658 5656 5652 5648 5646 5644 5643 5641 5639 5638 5640 5638 5635 5633 5631 5628 5625 5622 5619 5617 5615
5691 5688 5686 5685 5683 5681 5678 5674 5673 5671 5671 5669 5668 5666 5664 5663 5660 5657 5656 5654 5653 5653 5651 5647 5644 5642 5640 5638 5634 5633 5632 5633 5632 5630 5627 5624 5622 5619 5616 5613 5611 5608 5606
5688 5685 5682 5681 5679 5677 5674 5672 5671 5669 5668 5667 5665 5663 5662 5660 5658 5656 5654 5651 5647 5646 5644 5640 5637 5635 5633 5631 5629 5628 5626 5624 5623 5621 5618 5615 5613 5609 5607 5604 5602 5599 5597
5684 5682 5680 5678 5675 5672 5669 5668 5667 5667 5667 5665 5663 5662 5659 5657 5655 5653 5652 5649 5646 5644 5641 5638 5635 5632 5630 5627 5625 5622 5619 5617 5613 5611 5608 5606 5603 5601 5597 5594 5590 5589 5587
5680 5678 5676 5673 5670 5668 5664 5660 5656 5658 5657 5656 5656 5656 5655 5652 5648 5646 5643 5641 5638 5635 5634 5633 5630 5627 5624 5622 5619 5615 5611 5608 5605 5602 5599 5596 5593 5590 5587 5584 5580 5577 5575
5677 5675 5672 5669 5667 5664 5662 5659 5655 5649 5648 5647 5647 5647 5646 5643 5641 5638 5636 5632 5629 5627 5627 5626 5623 5620 5617 5614 5611 5607 5604 5599 5595 5592 5589 5586 5582 5579 5576 5573 5569 5565 5562
5673 5670 5668 5666 5663 5661 5659 5657 5654 5651 5647 5643 5639 5638 5636 5635 5633 5631 5628 5625 5622 5620 5620 5618 5615 5611 5608 5605 5601 5598 5594 5590 5586 5582 5578 5575 5572 5569 5565 5561 5557 5553 5549
5668 5665 5664 5662 5660 5658 5655 5652 5650 5647 5644 5640 5637 5632 5628 5626 5624 5622 5620 5621 5619 5615 5612 5609 5605 5602 5598 5595 5591 5588 5584 5580 5576 5572 5568 5564 5561 5557 5553 5549 5545 5539 5535
5662 5660 5658 5657 5655 5653 5650 5647 5645 5642 5639 5636 5632 5629 5625 5622 5620 5616 5614 5613 5611 5607 5603 5600 5596 5592 5589 5585 5581 5577 5574 5570 5565 5561 5557 5553 5548 5544 5540 5536 5532 5528 5523
5657 5654 5652 5652 5651 5648 5645 5642 5640 5637 5633 5630 5626 5623 5620 5619 5616 5612 5608 5605 5602 5598 5595 5591 5587 5583 5579 5575 5571 5567 5563 5559 5555 5550 5546 5541 5536 5532 5527 5523 5518 5514 5510
5653 5650 5648 5647 5645 5642 5640 5637 5634 5631 5627 5623 5619 5615 5611 5611 5608 5604 5600 5596 5592 5588 5585 5581 5577 5572 5568 5564 5560 5556 5552 5548 5544 5539 5534 5530 5525 5520 5515 5510 5505 5500 5495
5646 5644 5642 5640 5638 5634 5632 5630 5627 5624 5620 5617 5613 5608 5605 5602 5599 5595 5591 5586 5582 5578 5574 5570 5566 5562 5557 5553 5548 5544 5541 5536 5531 5527 5522 5518 5513 5508 5502 5497 5491 5486 5481
5639 5638 5635 5633 5630 5628 5625 5623 5620 5617 5613 5609 5605 5601 5597 5593 5589 5585 5581 5576 5571 5567 5563 5559 5555 5550 5546 5541 5536 5532 5527 5522 5517 5513 5509 5505 5500 5495 5489 5484 5478 5473 5467
5631 5630 5627 5625 5623 5620 5617 5615 5612 5608 5605 5601 5596 5592 5588 5583 5579 5574 5570 5565 5561 5556 5552 5547 5543 5539 5534 5529 5524 5519 5514 5509 5504 5500 5495 5491 5486 5481 5476 5470 5465 5460 5454
5622 5621 5619 5616 5614 5612 5609 5606 5602 5599 5595 5591 5586 5582 5578 5573 5568 5564 5559 5555 5550 5545 5540 5536 5531 5527 5522 5517 5512 5506 5502 5497 5492 5486 5482 5478 5473 5467 5461 5456 5451 5446 5441